2018-094C (43712 NORAD) Tracking and Keplerian Element Data

This shows tracking and keplerian element data for the satellite.

Feedback or suggestion? Click here.




ElementValue
Catalog43712
Name2018-094C
Epoch Orbit440
Epoch Day352.89235155
Epoch Year2018
RAAN357.383
Inclination97.408
Eccentricity0.0014182
Argument of Perigee156.02
Mean Anonmoly321.0064
Mean Motion15.23116724
Decay Rate5.43E-06
L11 43712U 18094C 18352.89235155 .00000543 00000-0 25938-4 0 9999
L22 43712 97.4080 357.3830 0014182 156.0200 321.0064 15.23116724 4402

Live tracking and technical data element details for 2018-094C (NORAD 43712). 2018-094C can be tracked NOW for your location showing map with azimuth and elevation plus other details from your city location.

Track the satellite on the map from your city or location and see movement details for azimuth, elevation, latitude, longitude, range, height, and movement on the map or in text.







IsCatalogInMostPopularTable: catalog: 43712, numindb: 36
Update: records affected: 1



GetName: 43712 2018-094C

Hit Count: updated at: Wed, 23 Jan 2019 02:56:57 GMT